Time,TemperatureF,DewpointF,PressureIn,WindDirection,WindDirectionDegrees,WindSpeedMPH,WindSpeedGustMPH,Humidity,HourlyPrecipIn,Conditions,Clouds,dailyrainin,SoftwareType,DateUTC
2013-01-16 00:00:00,31.0,10.0,30.07,WNW,285,2.0,2.0,41,0.00,,,0.00,Wunderground v.1.15,2013-01-16 07:00:00,
2013-01-16 00:10:00,30.9,9.9,30.07,West,272,2.0,2.0,41,0.00,,,0.00,Wunderground v.1.15,2013-01-16 07:10:00,
2013-01-16 00:15:00,31.0,10.6,30.07,SW,219,4.0,4.0,42,0.00,,,0.00,Wunderground v.1.15,2013-01-16 07:15:00,
2013-01-16 00:25:00,31.3,11.9,30.07,East,96,4.0,4.0,44,0.00,,,0.00,Wunderground v.1.15,2013-01-16 07:25:00,
2013-01-16 00:30:00,31.6,12.2,30.06,SSW,208,3.0,7.0,44,0.00,,,0.00,Wunderground v.1.15,2013-01-16 07:30:00,
2013-01-16 00:40:00,31.8,12.3,30.06,WNW,287,6.0,6.0,44,0.00,,,0.00,Wunderground v.1.15,2013-01-16 07:40:00,
2013-01-16 00:45:00,31.8,12.8,30.04,SSE,147,3.0,6.0,45,0.00,,,0.00,Wunderground v.1.15,2013-01-16 07:45:00,
2013-01-16 00:55:00,31.8,12.3,30.04,West,280,4.0,4.0,44,0.00,,,0.00,Wunderground v.1.15,2013-01-16 07:55:00,
2013-01-16 01:00:00,31.8,12.3,30.04,SW,233,4.0,4.0,44,0.00,,,0.00,Wunderground v.1.15,2013-01-16 08:00:00,
2013-01-16 01:10:00,31.8,11.8,30.04,ESE,103,3.0,3.0,43,0.00,,,0.00,Wunderground v.1.15,2013-01-16 08:10:00,
2013-01-16 01:15:00,31.8,11.3,30.04,WNW,299,3.0,3.0,42,0.00,,,0.00,Wunderground v.1.15,2013-01-16 08:15:00,
2013-01-16 01:25:00,31.8,10.2,30.04,WNW,288,5.0,7.0,40,0.00,,,0.00,Wunderground v.1.15,2013-01-16 08:25:00,
2013-01-16 01:30:00,31.9,10.3,30.04,North,349,5.0,7.0,40,0.00,,,0.00,Wunderground v.1.15,2013-01-16 08:30:00,
2013-01-16 01:40:00,31.6,10.0,30.04,NW,306,4.0,4.0,40,0.00,,,0.00,Wunderground v.1.15,2013-01-16 08:40:00,
2013-01-16 01:45:00,31.3,10.3,30.05,WNW,289,3.0,4.0,41,0.00,,,0.00,Wunderground v.1.15,2013-01-16 08:45:00,
2013-01-16 01:55:00,30.7,9.2,30.05,South,189,2.0,2.0,40,0.00,,,0.00,Wunderground v.1.15,2013-01-16 08:55:00,
2013-01-16 02:00:00,30.4,8.9,30.08,SSE,154,3.0,3.0,40,0.00,,,0.00,Wunderground v.1.15,2013-01-16 09:00:00,
2013-01-16 02:10:00,30.1,9.7,30.08,NW,313,5.0,13.0,42,0.00,,,0.00,Wunderground v.1.15,2013-01-16 09:10:00,
2013-01-16 02:15:00,30.1,10.3,30.09,SSW,206,7.0,13.0,43,0.00,,,0.00,Wunderground v.1.15,2013-01-16 09:15:00,
2013-01-16 02:25:00,30.1,9.7,30.09,WSW,256,6.0,11.0,42,0.00,,,0.00,Wunderground v.1.15,2013-01-16 09:25:00,
2013-01-16 02:30:00,30.1,9.7,30.10,West,264,4.0,4.0,42,0.00,,,0.00,Wunderground v.1.15,2013-01-16 09:30:00,
2013-01-16 02:40:00,30.0,9.6,30.10,SSW,213,3.0,4.0,42,0.00,,,0.00,Wunderground v.1.15,2013-01-16 09:40:00,
2013-01-16 02:45:00,30.1,9.7,30.10,SSE,148,3.0,4.0,42,0.00,,,0.00,Wunderground v.1.15,2013-01-16 09:45:00,
2013-01-16 02:55:00,30.3,9.4,30.10,SE,144,2.0,3.0,41,0.00,,,0.00,Wunderground v.1.15,2013-01-16 09:55:00,
2013-01-16 03:00:00,30.6,9.1,30.09,SSW,198,4.0,13.0,40,0.00,,,0.00,Wunderground v.1.15,2013-01-16 10:00:00,
2013-01-16 03:10:00,31.2,9.1,30.09,SSW,193,3.0,3.0,39,0.00,,,0.00,Wunderground v.1.15,2013-01-16 10:10:00,
2013-01-16 03:15:00,31.6,10.0,30.06,West,271,1.0,3.0,40,0.00,,,0.00,Wunderground v.1.15,2013-01-16 10:15:00,
2013-01-16 03:25:00,32.7,10.4,30.06,West,272,3.0,3.0,39,0.00,,,0.00,Wunderground v.1.15,2013-01-16 10:25:00,
2013-01-16 03:30:00,32.8,10.5,30.05,SE,128,2.0,2.0,39,0.00,,,0.00,Wunderground v.1.15,2013-01-16 10:30:00,
2013-01-16 03:40:00,32.5,10.8,30.05,South,175,4.0,4.0,40,0.00,,,0.00,Wunderground v.1.15,2013-01-16 10:40:00,
2013-01-16 03:45:00,32.5,11.4,30.06,SSW,192,6.0,7.0,41,0.00,,,0.00,Wunderground v.1.15,2013-01-16 10:45:00,
2013-01-16 03:55:00,32.2,11.1,30.06,WNW,285,4.0,11.0,41,0.00,,,0.00,Wunderground v.1.15,2013-01-16 10:55:00,
2013-01-16 04:00:00,32.4,11.3,30.08,West,278,4.0,14.0,41,0.00,,,0.00,Wunderground v.1.15,2013-01-16 11:00:00,
2013-01-16 04:10:00,32.5,11.9,30.08,West,277,4.0,9.0,42,0.00,,,0.00,Wunderground v.1.15,2013-01-16 11:10:00,
2013-01-16 04:15:00,32.5,11.9,30.05,WNW,299,4.0,9.0,42,0.00,,,0.00,Wunderground v.1.15,2013-01-16 11:15:00,
2013-01-16 04:25:00,32.5,11.4,30.05,West,278,5.0,12.0,41,0.00,,,0.00,Wunderground v.1.15,2013-01-16 11:25:00,
2013-01-16 04:30:00,32.7,11.6,30.04,WNW,282,7.0,7.0,41,0.00,,,0.00,Wunderground v.1.15,2013-01-16 11:30:00,
2013-01-16 04:40:00,32.9,10.6,30.04,SSW,205,5.0,11.0,39,0.00,,,0.00,Wunderground v.1.15,2013-01-16 11:40:00,
2013-01-16 04:45:00,33.1,10.8,30.05,West,281,8.0,11.0,39,0.00,,,0.00,Wunderground v.1.15,2013-01-16 11:45:00,
2013-01-16 04:55:00,33.4,10.5,30.05,WNW,291,7.0,8.0,38,0.00,,,0.00,Wunderground v.1.15,2013-01-16 11:55:00,
2013-01-16 05:05:00,33.1,10.2,30.04,SSW,209,3.0,4.0,38,0.00,,,0.00,Wunderground v.1.15,2013-01-16 12:05:00,
2013-01-16 05:15:00,32.8,9.9,30.05,WNW,289,4.0,4.0,38,0.00,,,0.00,Wunderground v.1.15,2013-01-16 12:15:00,
2013-01-16 05:25:00,32.5,9.7,30.05,West,270,2.0,3.0,38,0.00,,,0.00,Wunderground v.1.15,2013-01-16 12:25:00,
2013-01-16 05:30:00,32.5,9.7,30.06,West,277,4.0,7.0,38,0.00,,,0.00,Wunderground v.1.15,2013-01-16 12:30:00,
2013-01-16 05:40:00,32.5,9.7,30.06,WNW,288,5.0,18.0,38,0.00,,,0.00,Wunderground v.1.15,2013-01-16 12:40:00,
2013-01-16 05:45:00,32.7,9.8,30.07,WNW,284,3.0,18.0,38,0.00,,,0.00,Wunderground v.1.15,2013-01-16 12:45:00,
2013-01-16 05:55:00,32.7,9.8,30.07,West,281,3.0,13.0,38,0.00,,,0.00,Wunderground v.1.15,2013-01-16 12:55:00,
2013-01-16 06:00:00,32.7,10.4,30.08,WNW,282,2.0,3.0,39,0.00,,,0.00,Wunderground v.1.15,2013-01-16 13:00:00,
2013-01-16 06:10:00,33.1,10.8,30.08,SSW,193,2.0,2.0,39,0.00,,,0.00,Wunderground v.1.15,2013-01-16 13:10:00,
2013-01-16 06:15:00,33.2,10.3,30.08,NW,305,1.0,2.0,38,0.00,,,0.00,Wunderground v.1.15,2013-01-16 13:15:00,
2013-01-16 06:25:00,33.5,10.6,30.08,SSE,162,1.0,1.0,38,0.00,,,0.00,Wunderground v.1.15,2013-01-16 13:25:00,
2013-01-16 06:30:00,33.4,11.1,30.07,West,274,0.0,0.0,39,0.00,,,0.00,Wunderground v.1.15,2013-01-16 13:30:00,
2013-01-16 06:40:00,32.7,11.0,30.07,SE,124,0.0,0.0,40,0.00,,,0.00,Wunderground v.1.15,2013-01-16 13:40:00,
2013-01-16 06:45:00,32.1,11.0,30.07,ESE,119,0.0,0.0,41,0.00,,,0.00,Wunderground v.1.15,2013-01-16 13:45:00,
2013-01-16 06:55:00,31.0,11.1,30.07,ESE,119,0.0,0.0,43,0.00,,,0.00,Wunderground v.1.15,2013-01-16 13:55:00,
2013-01-16 07:00:00,30.1,10.8,30.09,ESE,119,0.0,0.0,44,0.00,,,0.00,Wunderground v.1.15,2013-01-16 14:00:00,
2013-01-16 07:10:00,29.5,10.7,30.09,SE,127,0.0,0.0,45,0.00,,,0.00,Wunderground v.1.15,2013-01-16 14:10:00,
2013-01-16 07:15:00,29.1,10.9,30.11,SE,128,0.0,0.0,46,0.00,,,0.00,Wunderground v.1.15,2013-01-16 14:15:00,
2013-01-16 07:25:00,29.5,10.7,30.11,NW,313,0.0,0.0,45,0.00,,,0.00,Wunderground v.1.15,2013-01-16 14:25:00,
2013-01-16 07:30:00,29.1,11.4,30.10,NW,313,0.0,0.0,47,0.00,,,0.00,Wunderground v.1.15,2013-01-16 14:30:00,
2013-01-16 07:40:00,27.0,10.8,30.10,WNW,296,0.0,0.0,50,0.00,,,0.00,Wunderground v.1.15,2013-01-16 14:40:00,
2013-01-16 07:45:00,26.7,10.5,30.15,WNW,296,0.0,0.0,50,0.00,,,0.00,Wunderground v.1.15,2013-01-16 14:45:00,
2013-01-16 07:55:00,26.6,10.9,30.15,NW,308,0.0,0.0,51,0.00,,,0.00,Wunderground v.1.15,2013-01-16 14:55:00,
2013-01-16 08:00:00,26.6,10.9,30.16,ENE,59,0.0,0.0,51,0.00,,,0.00,Wunderground v.1.15,2013-01-16 15:00:00,
2013-01-16 08:10:00,26.9,11.2,30.16,ESE,113,0.0,0.0,51,0.00,,,0.00,Wunderground v.1.15,2013-01-16 15:10:00,
2013-01-16 08:15:00,27.5,11.3,30.16,NNW,335,0.0,0.0,50,0.00,,,0.00,Wunderground v.1.15,2013-01-16 15:15:00,
2013-01-16 08:25:00,29.5,11.7,30.16,WNW,292,0.0,1.0,47,0.00,,,0.00,Wunderground v.1.15,2013-01-16 15:25:00,
2013-01-16 08:30:00,30.9,12.0,30.14,North,0,0.0,0.0,45,0.00,,,0.00,Wunderground v.1.15,2013-01-16 15:30:00,
2013-01-16 08:40:00,32.7,12.1,30.14,WNW,285,1.0,2.0,42,0.00,,,0.00,Wunderground v.1.15,2013-01-16 15:40:00,
2013-01-16 08:45:00,32.7,12.1,30.11,SSE,168,2.0,2.0,42,0.00,,,0.00,Wunderground v.1.15,2013-01-16 15:45:00,
2013-01-16 08:55:00,32.7,12.6,30.11,West,277,2.0,8.0,43,0.00,,,0.00,Wunderground v.1.15,2013-01-16 15:55:00,
2013-01-16 09:00:00,32.8,12.7,30.12,NNW,344,3.0,3.0,43,0.00,,,0.00,Wunderground v.1.15,2013-01-16 16:00:00,
2013-01-16 09:10:00,33.1,13.0,30.12,West,277,1.0,7.0,43,0.00,,,0.00,Wunderground v.1.15,2013-01-16 16:10:00,
2013-01-16 09:15:00,33.4,12.7,30.12,South,184,1.0,7.0,42,0.00,,,0.00,Wunderground v.1.15,2013-01-16 16:15:00,
2013-01-16 09:25:00,34.4,12.5,30.12,SSW,208,2.0,5.0,40,0.00,,,0.00,Wunderground v.1.15,2013-01-16 16:25:00,
2013-01-16 09:30:00,34.7,12.8,30.11,West,267,2.0,2.0,40,0.00,,,0.00,Wunderground v.1.15,2013-01-16 16:30:00,
2013-01-16 09:40:00,35.0,13.1,30.11,WNW,288,1.0,2.0,40,0.00,,,0.00,Wunderground v.1.15,2013-01-16 16:40:00,
2013-01-16 09:45:00,35.3,12.8,30.11,WNW,282,1.0,2.0,39,0.00,,,0.00,Wunderground v.1.15,2013-01-16 16:45:00,
2013-01-16 09:55:00,36.5,13.3,30.11,South,191,2.0,2.0,38,0.00,,,0.00,Wunderground v.1.15,2013-01-16 16:55:00,
2013-01-16 10:00:00,37.0,12.5,30.09,North,352,1.0,1.0,36,0.00,,,0.00,Wunderground v.1.15,2013-01-16 17:00:00,
2013-01-16 10:10:00,37.2,12.7,30.09,North,357,1.0,1.0,36,0.00,,,0.00,Wunderground v.1.15,2013-01-16 17:10:00,
2013-01-16 10:15:00,37.2,13.3,30.09,WNW,284,2.0,2.0,37,0.00,,,0.00,Wunderground v.1.15,2013-01-16 17:15:00,
2013-01-16 10:25:00,37.6,12.4,30.09,West,263,1.0,2.0,35,0.00,,,0.00,Wunderground v.1.15,2013-01-16 17:25:00,
2013-01-16 10:30:00,38.2,12.3,30.08,SSW,199,1.0,5.0,34,0.00,,,0.00,Wunderground v.1.15,2013-01-16 17:30:00,
2013-01-16 10:40:00,38.6,11.9,30.08,WNW,298,1.0,1.0,33,0.00,,,0.00,Wunderground v.1.15,2013-01-16 17:40:00,
2013-01-16 10:45:00,38.3,11.7,30.09,West,277,3.0,3.0,33,0.00,,,0.00,Wunderground v.1.15,2013-01-16 17:45:00,
2013-01-16 10:55:00,38.0,12.1,30.09,WNW,289,4.0,10.0,34,0.00,,,0.00,Wunderground v.1.15,2013-01-16 17:55:00,
2013-01-16 11:05:00,38.6,11.9,30.09,South,182,3.0,3.0,33,0.00,,,0.00,Wunderground v.1.15,2013-01-16 18:05:00,
2013-01-16 11:15:00,39.1,12.4,30.09,SW,236,3.0,3.0,33,0.00,,,0.00,Wunderground v.1.15,2013-01-16 18:15:00,
2013-01-16 11:25:00,39.9,11.7,30.09,West,281,3.0,3.0,31,0.00,,,0.00,Wunderground v.1.15,2013-01-16 18:25:00,
2013-01-16 11:35:00,40.6,13.0,30.07,North,6,3.0,3.0,32,0.00,,,0.00,Wunderground v.1.15,2013-01-16 18:35:00,
2013-01-16 11:40:00,40.8,12.5,30.07,NNW,332,3.0,3.0,31,0.00,,,0.00,Wunderground v.1.15,2013-01-16 18:40:00,
2013-01-16 11:45:00,41.2,12.8,30.05,North,353,2.0,2.0,31,0.00,,,0.00,Wunderground v.1.15,2013-01-16 18:45:00,
2013-01-16 11:55:00,42.1,12.1,30.05,ESE,113,1.0,1.0,29,0.00,,,0.00,Wunderground v.1.15,2013-01-16 18:55:00,
2013-01-16 12:00:00,41.9,13.4,30.05,WNW,287,1.0,1.0,31,0.00,,,0.00,Wunderground v.1.15,2013-01-16 19:00:00,
2013-01-16 12:10:00,41.2,13.5,30.05,South,186,3.0,3.0,32,0.00,,,0.00,Wunderground v.1.15,2013-01-16 19:10:00,
2013-01-16 12:15:00,41.1,12.7,30.04,WNW,291,2.0,6.0,31,0.00,,,0.00,Wunderground v.1.15,2013-01-16 19:15:00,
2013-01-16 12:25:00,40.9,12.5,30.04,WNW,298,2.0,2.0,31,0.00,,,0.00,Wunderground v.1.15,2013-01-16 19:25:00,
2013-01-16 12:30:00,41.1,12.7,30.04,South,189,1.0,1.0,31,0.00,,,0.00,Wunderground v.1.15,2013-01-16 19:30:00,
2013-01-16 12:40:00,41.3,12.9,30.04,South,174,1.0,1.0,31,0.00,,,0.00,Wunderground v.1.15,2013-01-16 19:40:00,
2013-01-16 12:45:00,41.6,13.2,30.01,WSW,243,0.0,1.0,31,0.00,,,0.00,Wunderground v.1.15,2013-01-16 19:45:00,
2013-01-16 12:55:00,42.3,13.0,30.01,SSW,203,1.0,2.0,30,0.00,,,0.00,Wunderground v.1.15,2013-01-16 19:55:00,
2013-01-16 13:00:00,43.1,12.9,30.01,SW,215,0.0,0.0,29,0.00,,,0.00,Wunderground v.1.15,2013-01-16 20:00:00,
2013-01-16 13:10:00,43.3,12.3,30.01,NW,311,1.0,1.0,28,0.00,,,0.00,Wunderground v.1.15,2013-01-16 20:10:00,
2013-01-16 13:15:00,43.2,12.2,30.01,NW,322,0.0,1.0,28,0.00,,,0.00,Wunderground v.1.15,2013-01-16 20:15:00,
2013-01-16 13:25:00,43.2,12.2,30.01,NW,306,1.0,2.0,28,0.00,,,0.00,Wunderground v.1.15,2013-01-16 20:25:00,
2013-01-16 13:30:00,43.2,12.2,30.03,North,3,1.0,1.0,28,0.00,,,0.00,Wunderground v.1.15,2013-01-16 20:30:00,
2013-01-16 13:40:00,43.2,12.2,30.03,NNW,333,2.0,3.0,28,0.00,,,0.00,Wunderground v.1.15,2013-01-16 20:40:00,
2013-01-16 13:45:00,42.9,13.5,30.03,WNW,284,3.0,3.0,30,0.00,,,0.00,Wunderground v.1.15,2013-01-16 20:45:00,
2013-01-16 13:55:00,42.1,13.6,30.03,WNW,292,2.0,3.0,31,0.00,,,0.00,Wunderground v.1.15,2013-01-16 20:55:00,
2013-01-16 14:00:00,42.2,13.7,30.05,NW,304,1.0,1.0,31,0.00,,,0.00,Wunderground v.1.15,2013-01-16 21:00:00,
2013-01-16 14:10:00,42.3,13.0,30.05,South,182,2.0,2.0,30,0.00,,,0.00,Wunderground v.1.15,2013-01-16 21:10:00,
2013-01-16 14:15:00,42.8,14.2,30.05,SSW,209,2.0,2.0,31,0.00,,,0.00,Wunderground v.1.15,2013-01-16 21:15:00,
2013-01-16 14:25:00,43.2,13.0,30.05,NW,305,1.0,4.0,29,0.00,,,0.00,Wunderground v.1.15,2013-01-16 21:25:00,
2013-01-16 14:30:00,42.6,13.3,30.04,West,277,2.0,2.0,30,0.00,,,0.00,Wunderground v.1.15,2013-01-16 21:30:00,
2013-01-16 14:40:00,42.1,13.6,30.04,SW,219,2.0,2.0,31,0.00,,,0.00,Wunderground v.1.15,2013-01-16 21:40:00,
2013-01-16 14:45:00,41.8,13.3,30.04,SW,229,1.0,2.0,31,0.00,,,0.00,Wunderground v.1.15,2013-01-16 21:45:00,
2013-01-16 14:55:00,40.6,13.7,30.04,West,261,1.0,3.0,33,0.00,,,0.00,Wunderground v.1.15,2013-01-16 21:55:00,
2013-01-16 15:00:00,40.3,13.4,30.07,West,281,1.0,1.0,33,0.00,,,0.00,Wunderground v.1.15,2013-01-16 22:00:00,
2013-01-16 15:10:00,39.6,13.5,30.07,SW,223,1.0,1.0,34,0.00,,,0.00,Wunderground v.1.15,2013-01-16 22:10:00,
2013-01-16 15:15:00,39.2,13.8,30.08,WNW,288,1.0,1.0,35,0.00,,,0.00,Wunderground v.1.15,2013-01-16 22:15:00,
2013-01-16 15:25:00,38.8,13.4,30.08,WNW,289,2.0,2.0,35,0.00,,,0.00,Wunderground v.1.15,2013-01-16 22:25:00,
2013-01-16 15:30:00,38.6,13.3,30.08,SSW,198,2.0,2.0,35,0.00,,,0.00,Wunderground v.1.15,2013-01-16 22:30:00,
2013-01-16 15:40:00,38.3,13.0,30.08,West,265,1.0,2.0,35,0.00,,,0.00,Wunderground v.1.15,2013-01-16 22:40:00,
2013-01-16 15:45:00,38.2,13.6,30.10,SE,131,1.0,2.0,36,0.00,,,0.00,Wunderground v.1.15,2013-01-16 22:45:00,
2013-01-16 15:55:00,37.9,13.3,30.10,West,280,1.0,7.0,36,0.00,,,0.00,Wunderground v.1.15,2013-01-16 22:55:00,
2013-01-16 16:00:00,37.9,13.3,30.10,West,261,1.0,1.0,36,0.00,,,0.00,Wunderground v.1.15,2013-01-16 23:00:00,
2013-01-16 16:10:00,37.5,13.6,30.10,SSE,165,0.0,0.0,37,0.00,,,0.00,Wunderground v.1.15,2013-01-16 23:10:00,
2013-01-16 16:15:00,37.3,13.4,30.11,North,1,1.0,1.0,37,0.00,,,0.00,Wunderground v.1.15,2013-01-16 23:15:00,
2013-01-16 16:25:00,36.6,13.4,30.11,North,1,0.0,0.0,38,0.00,,,0.00,Wunderground v.1.15,2013-01-16 23:25:00,
2013-01-16 16:30:00,36.2,13.6,30.12,North,1,0.0,0.0,39,0.00,,,0.00,Wunderground v.1.15,2013-01-16 23:30:00,
2013-01-16 16:40:00,34.4,13.6,30.12,North,1,0.0,0.0,42,0.00,,,0.00,Wunderground v.1.15,2013-01-16 23:40:00,
2013-01-16 16:45:00,33.8,13.1,30.16,North,1,0.0,0.0,42,0.00,,,0.00,Wunderground v.1.15,2013-01-16 23:45:00,
2013-01-16 16:55:00,32.2,13.2,30.16,North,1,0.0,0.0,45,0.00,,,0.00,Wunderground v.1.15,2013-01-16 23:55:00,
2013-01-16 17:00:00,31.2,13.3,30.18,North,1,0.0,0.0,47,0.00,,,0.00,Wunderground v.1.15,2013-01-17 00:00:00,
2013-01-16 17:10:00,30.3,12.9,30.18,North,1,0.0,0.0,48,0.00,,,0.00,Wunderground v.1.15,2013-01-17 00:10:00,
2013-01-16 17:15:00,29.8,12.9,30.21,North,1,0.0,0.0,49,0.00,,,0.00,Wunderground v.1.15,2013-01-17 00:15:00,
2013-01-16 17:25:00,28.7,12.8,30.21,North,1,0.0,0.0,51,0.00,,,0.00,Wunderground v.1.15,2013-01-17 00:25:00,
2013-01-16 17:30:00,28.2,12.8,30.22,North,1,0.0,0.0,52,0.00,,,0.00,Wunderground v.1.15,2013-01-17 00:30:00,
2013-01-16 17:40:00,27.9,12.5,30.22,North,1,0.0,0.0,52,0.00,,,0.00,Wunderground v.1.15,2013-01-17 00:40:00,
2013-01-16 17:45:00,28.1,12.7,30.24,North,1,0.0,0.0,52,0.00,,,0.00,Wunderground v.1.15,2013-01-17 00:45:00,
2013-01-16 17:55:00,27.2,12.7,30.24,North,1,0.0,0.0,54,0.00,,,0.00,Wunderground v.1.15,2013-01-17 00:55:00,
2013-01-16 18:00:00,26.7,12.7,30.24,North,1,0.0,0.0,55,0.00,,,0.00,Wunderground v.1.15,2013-01-17 01:00:00,
2013-01-16 18:10:00,26.4,12.4,30.24,North,1,0.0,0.0,55,0.00,,,0.00,Wunderground v.1.15,2013-01-17 01:10:00,
2013-01-16 18:15:00,26.3,12.3,30.26,North,1,0.0,0.0,55,0.00,,,0.00,Wunderground v.1.15,2013-01-17 01:15:00,
2013-01-16 18:25:00,25.6,12.1,30.26,North,1,0.0,0.0,56,0.00,,,0.00,Wunderground v.1.15,2013-01-17 01:25:00,
2013-01-16 18:30:00,25.1,12.4,30.30,North,1,0.0,0.0,58,0.00,,,0.00,Wunderground v.1.15,2013-01-17 01:30:00,
2013-01-16 18:40:00,25.3,12.6,30.30,North,1,0.0,0.0,58,0.00,,,0.00,Wunderground v.1.15,2013-01-17 01:40:00,
2013-01-16 18:45:00,25.6,12.9,30.31,North,1,0.0,0.0,58,0.00,,,0.00,Wunderground v.1.15,2013-01-17 01:45:00,
2013-01-16 18:55:00,25.1,12.0,30.31,North,1,0.0,0.0,57,0.00,,,0.00,Wunderground v.1.15,2013-01-17 01:55:00,
2013-01-16 19:00:00,25.0,11.9,30.31,North,1,0.0,0.0,57,0.00,,,0.00,Wunderground v.1.15,2013-01-17 02:00:00,
2013-01-16 19:10:00,24.4,12.1,30.31,North,1,0.0,0.0,59,0.00,,,0.00,Wunderground v.1.15,2013-01-17 02:10:00,
2013-01-16 19:15:00,24.2,11.9,30.33,North,1,0.0,0.0,59,0.00,,,0.00,Wunderground v.1.15,2013-01-17 02:15:00,
2013-01-16 19:25:00,23.8,11.9,30.33,North,1,0.0,0.0,60,0.00,,,0.00,Wunderground v.1.15,2013-01-17 02:25:00,
2013-01-16 19:30:00,24.1,12.2,30.35,North,1,0.0,0.0,60,0.00,,,0.00,Wunderground v.1.15,2013-01-17 02:30:00,
2013-01-16 19:40:00,23.6,11.7,30.35,North,1,0.0,0.0,60,0.00,,,0.00,Wunderground v.1.15,2013-01-17 02:40:00,
2013-01-16 19:45:00,23.5,11.6,30.35,North,1,0.0,0.0,60,0.00,,,0.00,Wunderground v.1.15,2013-01-17 02:45:00,
2013-01-16 19:55:00,23.3,11.8,30.35,North,1,0.0,0.0,61,0.00,,,0.00,Wunderground v.1.15,2013-01-17 02:55:00,
2013-01-16 20:00:00,23.5,12.0,30.35,North,1,0.0,0.0,61,0.00,,,0.00,Wunderground v.1.15,2013-01-17 03:00:00,
2013-01-16 20:10:00,23.6,12.1,30.35,North,1,0.0,0.0,61,0.00,,,0.00,Wunderground v.1.15,2013-01-17 03:10:00,
2013-01-16 20:15:00,23.2,11.7,30.36,North,1,0.0,0.0,61,0.00,,,0.00,Wunderground v.1.15,2013-01-17 03:15:00,
2013-01-16 20:25:00,22.5,11.4,30.36,North,1,0.0,0.0,62,0.00,,,0.00,Wunderground v.1.15,2013-01-17 03:25:00,
2013-01-16 20:30:00,22.1,11.1,30.31,North,1,0.0,0.0,62,0.00,,,0.00,Wunderground v.1.15,2013-01-17 03:30:00,
2013-01-16 20:40:00,21.9,11.2,30.31,North,1,0.0,0.0,63,0.00,,,0.00,Wunderground v.1.15,2013-01-17 03:40:00,
2013-01-16 20:45:00,21.9,11.6,30.33,North,1,0.0,0.0,64,0.00,,,0.00,Wunderground v.1.15,2013-01-17 03:45:00,
2013-01-16 20:55:00,21.3,10.7,30.33,North,1,0.0,0.0,63,0.00,,,0.00,Wunderground v.1.15,2013-01-17 03:55:00,
2013-01-16 21:00:00,21.1,10.8,30.33,North,1,0.0,0.0,64,0.00,,,0.00,Wunderground v.1.15,2013-01-17 04:00:00,
2013-01-16 21:10:00,21.3,11.7,30.33,North,1,0.0,0.0,66,0.00,,,0.00,Wunderground v.1.15,2013-01-17 04:10:00,
2013-01-16 21:15:00,21.1,11.2,30.33,North,1,0.0,0.0,65,0.00,,,0.00,Wunderground v.1.15,2013-01-17 04:15:00,
2013-01-16 21:25:00,20.5,9.9,30.33,North,1,0.0,0.0,63,0.00,,,0.00,Wunderground v.1.15,2013-01-17 04:25:00,
2013-01-16 21:30:00,20.5,10.9,30.30,North,1,0.0,0.0,66,0.00,,,0.00,Wunderground v.1.15,2013-01-17 04:30:00,
2013-01-16 21:40:00,20.3,10.7,30.30,North,1,0.0,0.0,66,0.00,,,0.00,Wunderground v.1.15,2013-01-17 04:40:00,
2013-01-16 21:45:00,20.2,10.6,30.32,North,1,0.0,0.0,66,0.00,,,0.00,Wunderground v.1.15,2013-01-17 04:45:00,
2013-01-16 21:55:00,19.5,10.0,30.32,North,1,0.0,0.0,66,0.00,,,0.00,Wunderground v.1.15,2013-01-17 04:55:00,
2013-01-16 22:05:00,19.2,10.0,30.32,North,1,0.0,0.0,67,0.00,,,0.00,Wunderground v.1.15,2013-01-17 05:05:00,
2013-01-16 22:10:00,19.2,10.0,30.32,North,1,0.0,0.0,67,0.00,,,0.00,Wunderground v.1.15,2013-01-17 05:10:00,
2013-01-16 22:15:00,19.4,10.6,30.33,North,1,0.0,0.0,68,0.00,,,0.00,Wunderground v.1.15,2013-01-17 05:15:00,
2013-01-16 22:20:00,19.2,10.4,30.33,North,1,0.0,0.0,68,0.00,,,0.00,Wunderground v.1.15,2013-01-17 05:20:00,
2013-01-16 22:30:00,19.1,9.9,30.31,North,1,0.0,0.0,67,0.00,,,0.00,Wunderground v.1.15,2013-01-17 05:30:00,
2013-01-16 22:35:00,19.1,9.6,30.31,North,1,0.0,0.0,66,0.00,,,0.00,Wunderground v.1.15,2013-01-17 05:35:00,
2013-01-16 22:40:00,19.1,9.9,30.31,North,1,0.0,0.0,67,0.00,,,0.00,Wunderground v.1.15,2013-01-17 05:40:00,
2013-01-16 22:45:00,18.6,8.8,30.31,North,1,0.0,0.0,65,0.00,,,0.00,Wunderground v.1.15,2013-01-17 05:45:00,
2013-01-16 22:55:00,18.0,8.9,30.31,North,1,0.0,0.0,67,0.00,,,0.00,Wunderground v.1.15,2013-01-17 05:55:00,
2013-01-16 23:00:00,18.1,9.3,30.33,North,1,0.0,0.0,68,0.00,,,0.00,Wunderground v.1.15,2013-01-17 06:00:00,
2013-01-16 23:10:00,17.8,9.0,30.33,North,1,0.0,0.0,68,0.00,,,0.00,Wunderground v.1.15,2013-01-17 06:10:00,
2013-01-16 23:15:00,18.1,9.3,30.34,North,1,0.0,0.0,68,0.00,,,0.00,Wunderground v.1.15,2013-01-17 06:15:00,
2013-01-16 23:25:00,18.1,9.3,30.34,North,1,0.0,0.0,68,0.00,,,0.00,Wunderground v.1.15,2013-01-17 06:25:00,
2013-01-16 23:30:00,18.0,8.9,30.33,North,1,0.0,0.0,67,0.00,,,0.00,Wunderground v.1.15,2013-01-17 06:30:00,
2013-01-16 23:40:00,17.7,9.2,30.33,North,1,0.0,0.0,69,0.00,,,0.00,Wunderground v.1.15,2013-01-17 06:40:00,
2013-01-16 23:45:00,17.2,8.4,30.34,North,1,0.0,0.0,68,0.00,,,0.00,Wunderground v.1.15,2013-01-17 06:45:00,
2013-01-16 23:55:00,17.2,8.8,30.34,North,1,0.0,0.0,69,0.00,,,0.00,Wunderground v.1.15,2013-01-17 06:55:00,